| time (UTC) | temp C | wind direction | speed KPH | gust KPH | rain 1hr cm | rain 24hr cm | rain mn cm | humidity % | barometer mb |
| 20260503072632 | 21 | 0.0 | 0.0 | 0.00 | 0.00 | 0.00 | 43 | 996.3 | |
| 20260503070627 | 21 | 0.0 | 0.0 | 0.00 | 0.00 | 0.00 | 45 | 996.3 | |
| 20260503054608 | 17 | 0.0 | 0.0 | 0.00 | 0.00 | 0.00 | 52 | 996.2 | |
| 20260503052603 | 17 | 0.0 | 0.0 | 0.00 | 0.00 | 0.00 | 49 | 996.1 | |
| 20260503050558 | 20 | 0.0 | 0.0 | 0.00 | 0.00 | 0.00 | 45 | 996.1 | |
| 20260503044553 | 19 | 0.0 | 0.0 | 0.00 | 0.00 | 0.00 | 48 | 996.0 | |
| 20260503042548 | 13 | 0.0 | 0.0 | 0.00 | 0.00 | 0.00 | 61 | 996.1 | |
| 20260503040543 | 13 | 0.0 | 0.0 | 0.00 | 0.00 | 0.00 | 62 | 996.0 | |
| 20260503032533 | 13 | 0.0 | 0.0 | 0.00 | 0.00 | 0.00 | 61 | 996.0 | |
| 20260503024523 | 13 | 0.0 | 0.0 | 0.00 | 0.00 | 0.00 | 61 | 996.1 | |
| 20260503022518 | 13 | 0.0 | 0.0 | 0.00 | 0.00 | 0.00 | 60 | 996.2 | |
| 20260503020513 | 13 | 0.0 | 0.0 | 0.00 | 0.00 | 0.00 | 59 | 996.3 | |
| 20260503014509 | 14 | 0.0 | 0.0 | 0.00 | 0.00 | 0.00 | 59 | 996.3 | |
| 20260503010459 | 14 | 0.0 | 0.0 | 0.00 | 0.00 | 0.00 | 58 | 996.5 | |
| 20260503004454 | 14 | 0.0 | 0.0 | 0.00 | 0.00 | 0.00 | 58 | 996.7 | |
| 20260503002449 | 15 | 0.0 | 0.0 | 0.00 | 0.00 | 0.00 | 56 | 996.9 | |
| 20260503000444 | 15 | 0.0 | 0.0 | 0.00 | 0.00 | 0.00 | 55 | 997.1 | |
| 20260502234439 | 15 | 0.0 | 0.0 | 0.00 | 0.00 | 0.00 | 55 | 997.3 | |
| 20260502232434 | 15 | 0.0 | 0.0 | 0.00 | 0.00 | 0.00 | 54 | 997.3 | |
| 20260502230429 | 15 | 0.0 | 0.0 | 0.00 | 0.00 | 0.00 | 53 | 997.4 | |
| 20260502224425 | 16 | 0.0 | 0.0 | 0.00 | 0.00 | 0.00 | 52 | 997.5 | |
| 20260502222420 | 16 | 0.0 | 0.0 | 0.00 | 0.00 | 0.00 | 50 | 997.5 | |
| 20260502220415 | 16 | 0.0 | 0.0 | 0.00 | 0.00 | 0.00 | 50 | 997.6 | |
| 20260502214410 | 16 | 0.0 | 0.0 | 0.00 | 0.00 | 0.00 | 49 | 997.6 | |
| 20260502212405 | 16 | 0.0 | 0.0 | 0.00 | 0.00 | 0.00 | 50 | 997.5 | |
| 20260502210400 | 17 | 0.0 | 0.0 | 0.00 | 0.00 | 0.00 | 49 | 997.5 | |
| 20260502204355 | 17 | 0.0 | 0.0 | 0.00 | 0.00 | 0.00 | 49 | 997.5 | |
| 20260502202350 | 17 | 0.0 | 0.0 | 0.00 | 0.00 | 0.00 | 48 | 997.6 | |
| 20260502200345 | 17 | 0.0 | 0.0 | 0.00 | 0.00 | 0.00 | 46 | 997.6 | |
| 20260502194340 | 18 | 0.0 | 0.0 | 0.00 | 0.00 | 0.00 | 44 | 997.6 | |
| 20260502192335 | 18 | 0.0 | 0.0 | 0.00 | 0.00 | 0.00 | 45 | 997.4 | |
| 20260502190330 | 18 | 0.0 | 0.0 | 0.00 | 0.00 | 0.00 | 42 | 997.3 | |
| 20260502184326 | 20 | 0.0 | 0.0 | 0.00 | 0.00 | 0.00 | 38 | 997.1 | |
| 20260502180316 | 22 | 0.0 | 0.0 | 0.00 | 0.00 | 0.00 | 34 | 996.9 | |
| 20260502170301 | 24 | 0.0 | 0.0 | 0.00 | 0.00 | 0.00 | 32 | 997.0 | |
| 20260502164256 | 25 | 0.0 | 0.0 | 0.00 | 0.00 | 0.00 | 31 | 997.1 | |
| 20260502162252 | 25 | 0.0 | 0.0 | 0.00 | 0.00 | 0.00 | 30 | 997.2 | |
| 20260502130157 | 26 | 0.0 | 0.0 | 0.00 | 0.00 | 0.00 | 31 | 999.6 | |
| 20260502122147 | 26 | 0.0 | 0.0 | 0.00 | 0.00 | 0.00 | 33 | 1000.2 | |
| 20260502114138 | 25 | 0.0 | 0.0 | 0.00 | 0.00 | 0.00 | 33 | 1000.8 | |
| 20260502112131 | 24 | 0.0 | 0.0 | 0.00 | 0.00 | 0.00 | 33 | 1000.9 | |
| 20260502110125 | 24 | 0.0 | 0.0 | 0.00 | 0.00 | 0.00 | 35 | 1001.4 | |
| 20260502104120 | 24 | 0.0 | 0.0 | 0.00 | 0.00 | 0.00 | 35 | 1001.6 | |
| 20260502102116 | 23 | 0.0 | 0.0 | 0.00 | 0.00 | 0.00 | 36 | 1001.9 | |
| 20260502100111 | 23 | 0.0 | 0.0 | 0.00 | 0.00 | 0.00 | 37 | 1002.2 |